SCP
0 0 0 0 0 -0 -0 -1 -1 -1 -0 -0 -0 -0 -0 -0 -0 -0 -0 -0 -0 0 0 0 0 -0 0 -0 0 0 0 0 -0
-0 0 -0 0 -0 -0 -0 -1 -2 -2 -1 -0 -1 -1 -0 -0 -0 0 -0 -0 0 0 0 0 0 0 0 -0 -0 0 -0 0 -0
0 -0 -0 -0 -0 -0 0 -0 -2 -2 -1 -1 -1 -0 -0 0 0 0 0 0 0 0 0 0 0 0 0 0 0 0 0 -0 -0
0 -0 -0 -0 -0 -0 -0 -0 -2 -3 -2 -1 -0 -0 0 0 0 0 0 0 0 0 0 0 0 0 0 0 0 0 -0 -0 0
-0 -0 -0 -0 -0 -0 -0 -0 -1 -3 -2 -1 -1 -1 -0 0 1 1 1 0 0 0 0 0 0 0 0 0 0 0 0 -0 0
0 -0 -0 0 -0 -0 -0 -1 -2 -3 -2 -1 -0 -0 0 1 1 0 0 0 0 0 0 0 0 0 0 0 0 0 0 0 0
0 -0 0 -0 0 0 -0 -1 -2 -2 -1 -1 -0 0 1 2 1 0 0 0 0 0 0 0 0 0 0 0 0 0 0 0 0
0 -0 -0 0 0 -0 -1 -0 -1 -0 0 0 0 0 2 2 0 0 0 0 0 0 0 0 0 0 0 0 0 0 0 0 0
-0 0 0 0 -0 -1 -1 -1 -0 0 1 1 0 1 1 1 0 0 0 0 0 0 0 0 0 0 0 0 0 -0 -0 -0 0
0 0 0 1 0 -1 -1 -0 -0 1 1 1 1 1 1 0 0 0 -0 0 0 0 0 0 0 0 -0 -0 -0 -0 -0 -0 0
0 0 1 1 1 0 0 0 1 1 2 1 1 1 1 0 0 0 0 0 0 0 0 0 0 0 0 0 0 0 0 0 0
1 0 0 0 1 0 1 1 2 2 2 2 2 1 1 0 0 0 0 0 0 0 0 0 0 0 0 0 0 0 0 0 0
1 0 1 1 2 3 3 4 4 3 3 3 2 1 1 0 0 0 0 0 0 0 0 0 0 0 0 0 0 0 0 0 0
2 0 1 2 4 4 4 3 5 6 4 2 1 1 1 0 0 0 0 0 0 0 0 0 0 0 0 0 0 0 0 0 0
1 1 1 3 7 8 6 4 3 3 3 2 2 1 1 0 0 0 0 0 0 0 0 0 0 0 0 0 0 0 0 0 0
2 1 1 3 7 5 3 3 2 2 2 2 2 1 1 0 0 0 0 0 0 0 0 0 0 0 0 0 0 0 0 0 0
3 2 1 3 7 7 4 3 2 2 2 2 1 1 1 0 0 0 0 0 0 0 0 0 0 0 0 0 0 0 0 0 0
1 1 1 2 4 4 2 2 2 2 2 2 2 1 1 0 0 0 0 0 0 0 0 0 0 0 0 0 0 -0 0 0 0
0 0 1 1 2 1 2 1 1 2 3 2 1 1 0 0 0 0 0 0 0 0 0 0 0 0 0 0 0 0 0 0 0
0 0 1 0 1 1 0 0 0 1 1 0 0 0 0 0 0 0 0 0 0 0 0 -0 -0 0 0 0 0 0 0 0 0
Wind_Speed_500mb
22 25 47 72 81 90 89 90 85 76 74 68 63 61 52 58 52 47 43 38 38 31 28 26 19 14 11 8 6 4 1 6 8
43 43 13 32 78 83 86 93 91 79 78 73 64 57 53 58 59 50 41 36 37 36 33 33 24 14 14 12 5 3 7 8 11
33 53 75 71 84 73 70 96 97 84 77 72 64 54 51 51 58 57 46 39 34 36 41 37 30 23 20 11 7 7 13 15 12
57 56 66 81 79 68 55 84 102 89 82 73 67 55 52 51 53 49 48 43 40 32 36 41 35 29 24 14 9 12 16 12 10
41 30 22 54 81 75 67 85 101 94 85 74 66 57 53 53 50 44 51 41 30 31 37 41 38 33 24 14 8 13 14 9 5
32 40 45 53 60 68 93 91 95 91 84 73 66 58 57 54 49 46 38 19 17 36 41 59 50 26 17 7 7 10 7 5 1
48 52 56 66 68 52 79 91 89 88 79 70 62 56 56 53 45 25 25 41 50 40 41 26 33 29 7 1 13 10 5 2 6
46 43 46 43 59 53 87 83 81 80 74 67 58 50 51 48 34 35 27 48 33 44 28 15 31 27 24 7 16 9 3 5 12
42 48 54 49 57 62 78 85 79 79 71 64 56 45 40 41 38 36 26 32 41 52 22 19 26 30 22 19 14 8 6 9 8
9 28 32 34 50 70 82 77 79 72 64 60 56 43 37 43 41 38 27 26 41 37 14 20 35 28 22 18 12 9 10 10 9
6 23 29 35 49 64 65 66 65 63 63 59 54 50 44 47 46 35 32 35 35 35 14 26 31 24 20 18 15 12 14 16 17
48 30 31 27 41 51 58 61 65 66 64 60 58 57 54 48 41 33 38 37 37 31 30 34 32 25 21 16 17 19 16 19 19
44 31 37 41 48 56 59 64 64 62 62 62 63 61 57 54 47 40 36 36 37 32 38 32 30 28 23 21 22 22 18 16 14
33 34 26 48 54 53 56 57 56 58 59 60 55 52 49 46 41 36 28 42 40 41 42 34 32 25 23 27 27 22 18 14 5
35 39 34 38 55 55 52 52 51 53 58 54 50 54 51 41 35 33 38 46 45 45 39 33 29 26 27 32 30 22 15 12 10
39 46 27 21 55 50 57 51 47 51 50 54 58 57 51 40 39 37 38 47 49 48 40 35 30 28 29 32 28 20 16 15 11
42 37 30 36 44 63 59 58 51 41 51 52 55 53 51 44 41 43 39 41 44 42 40 35 31 29 28 27 28 24 20 17 14
24 22 31 31 38 56 55 53 51 41 37 43 54 51 47 48 46 47 47 45 41 38 33 25 22 22 29 34 28 18 17 16 9
21 19 18 24 37 47 53 51 36 37 26 46 48 49 54 54 53 50 50 50 44 39 32 28 25 23 26 25 13 17 24 23 23
24 38 31 23 37 40 47 37 24 33 32 41 40 54 52 52 52 47 52 49 42 39 42 38 30 24 19 16 11 15 21 13 19
Wind_Direction_500mb
113 172 180 197 212 213 223 219 216 218 217 213 214 213 217 217 218 214 219 220 225 215 216 199 202 196 188 151 154 144 348 279 308
152 155 161 217 214 216 215 222 219 218 218 216 214 214 213 215 219 219 221 216 209 219 214 207 205 195 184 173 199 271 271 281 301
182 169 197 220 224 225 226 225 225 218 219 219 214 213 213 214 219 224 230 222 221 225 218 218 201 194 187 198 245 284 296 300 309
198 217 212 218 222 237 233 225 225 218 215 217 213 212 212 211 214 217 217 219 219 230 219 203 197 195 192 201 247 286 305 303 323
223 243 270 250 228 230 238 218 219 217 211 215 212 211 210 214 210 207 206 206 230 206 199 196 192 192 198 198 262 296 306 295 329
223 237 226 212 221 231 220 215 213 213 208 212 212 213 209 214 210 206 212 174 240 222 212 198 187 197 207 199 303 292 295 290 31
187 203 219 219 220 220 213 211 211 210 207 209 215 216 214 211 208 206 185 192 227 210 213 41 124 148 182 273 299 288 284 199 119
186 212 225 235 214 219 207 208 207 208 206 208 215 214 215 207 200 200 208 213 231 208 219 272 195 178 192 229 252 253 243 143 134
202 246 239 236 209 210 206 209 208 205 205 208 210 208 209 199 199 207 202 211 192 199 222 150 177 181 187 219 232 231 148 139 140
221 170 197 216 224 213 207 205 205 201 205 206 204 200 196 195 200 201 213 209 183 182 176 184 180 182 196 212 236 208 138 149 127
34 172 175 190 200 200 201 201 203 205 203 203 202 197 193 196 204 213 209 208 207 204 213 179 181 194 200 218 213 178 151 133 125
10 206 193 197 196 195 194 199 203 200 198 201 199 198 198 199 211 209 197 197 203 199 183 170 186 193 207 216 199 172 167 152 139
345 346 209 201 203 198 199 198 198 199 199 196 197 198 199 205 199 199 196 197 189 181 174 177 188 197 196 187 186 186 178 185 183
312 318 274 215 208 207 204 201 198 200 200 196 196 199 204 199 194 200 203 183 182 178 176 186 192 193 192 185 186 189 194 198 206
296 295 277 250 210 205 209 203 203 205 200 192 185 194 196 200 190 192 189 182 179 181 185 192 190 189 187 188 191 186 193 205 226
292 287 290 279 223 230 228 208 214 206 197 197 186 193 190 183 188 187 187 188 187 186 191 195 196 193 192 191 185 183 185 200 201
268 275 268 250 238 228 217 216 202 206 210 205 195 189 181 180 182 176 179 186 191 189 190 194 198 194 189 182 176 179 181 192 176
271 285 296 277 242 235 229 217 198 201 199 194 184 183 177 176 177 180 176 180 188 187 191 200 210 204 192 182 177 168 181 199 227
277 281 285 277 256 239 219 203 180 174 173 220 188 180 179 179 181 183 183 187 187 187 189 181 181 182 185 192 207 215 218 223 238
268 286 260 253 259 243 225 211 194 193 174 201 192 192 182 181 185 184 185 193 194 189 181 176 180 192 199 221 243 222 211 230 227
Wind_Speed_850mb
22 25 47 72 81 90 89 90 85 76 74 68 63 61 52 58 52 47 43 38 38 31 28 26 19 14 11 8 6 4 1 6 8
43 43 13 32 78 83 86 93 91 79 78 73 64 57 53 58 59 50 41 36 37 36 33 33 24 14 14 12 5 3 7 8 11
33 53 75 71 84 73 70 96 97 84 77 72 64 54 51 51 58 57 46 39 34 36 41 37 30 23 20 11 7 7 13 15 12
57 56 66 81 79 68 55 84 102 89 82 73 67 55 52 51 53 49 48 43 40 32 36 41 35 29 24 14 9 12 16 12 10
41 30 22 54 81 75 67 85 101 94 85 74 66 57 53 53 50 44 51 41 30 31 37 41 38 33 24 14 8 13 14 9 5
32 40 45 53 60 68 93 91 95 91 84 73 66 58 57 54 49 46 38 19 17 36 41 59 50 26 17 7 7 10 7 5 1
48 52 56 66 68 52 79 91 89 88 79 70 62 56 56 53 45 25 25 41 50 40 41 26 33 29 7 1 13 10 5 2 6
46 43 46 43 59 53 87 83 81 80 74 67 58 50 51 48 34 35 27 48 33 44 28 15 31 27 24 7 16 9 3 5 12
42 48 54 49 57 62 78 85 79 79 71 64 56 45 40 41 38 36 26 32 41 52 22 19 26 30 22 19 14 8 6 9 8
9 28 32 34 50 70 82 77 79 72 64 60 56 43 37 43 41 38 27 26 41 37 14 20 35 28 22 18 12 9 10 10 9
6 23 29 35 49 64 65 66 65 63 63 59 54 50 44 47 46 35 32 35 35 35 14 26 31 24 20 18 15 12 14 16 17
48 30 31 27 41 51 58 61 65 66 64 60 58 57 54 48 41 33 38 37 37 31 30 34 32 25 21 16 17 19 16 19 19
44 31 37 41 48 56 59 64 64 62 62 62 63 61 57 54 47 40 36 36 37 32 38 32 30 28 23 21 22 22 18 16 14
33 34 26 48 54 53 56 57 56 58 59 60 55 52 49 46 41 36 28 42 40 41 42 34 32 25 23 27 27 22 18 14 5
35 39 34 38 55 55 52 52 51 53 58 54 50 54 51 41 35 33 38 46 45 45 39 33 29 26 27 32 30 22 15 12 10
39 46 27 21 55 50 57 51 47 51 50 54 58 57 51 40 39 37 38 47 49 48 40 35 30 28 29 32 28 20 16 15 11
42 37 30 36 44 63 59 58 51 41 51 52 55 53 51 44 41 43 39 41 44 42 40 35 31 29 28 27 28 24 20 17 14
24 22 31 31 38 56 55 53 51 41 37 43 54 51 47 48 46 47 47 45 41 38 33 25 22 22 29 34 28 18 17 16 9
21 19 18 24 37 47 53 51 36 37 26 46 48 49 54 54 53 50 50 50 44 39 32 28 25 23 26 25 13 17 24 23 23
24 38 31 23 37 40 47 37 24 33 32 41 40 54 52 52 52 47 52 49 42 39 42 38 30 24 19 16 11 15 21 13 19
Wind_Direction_850mb
113 172 180 197 212 213 223 219 216 218 217 213 214 213 217 217 218 214 219 220 225 215 216 199 202 196 188 151 154 144 348 279 308
152 155 161 217 214 216 215 222 219 218 218 216 214 214 213 215 219 219 221 216 209 219 214 207 205 195 184 173 199 271 271 281 301
182 169 197 220 224 225 226 225 225 218 219 219 214 213 213 214 219 224 230 222 221 225 218 218 201 194 187 198 245 284 296 300 309
198 217 212 218 222 237 233 225 225 218 215 217 213 212 212 211 214 217 217 219 219 230 219 203 197 195 192 201 247 286 305 303 323
223 243 270 250 228 230 238 218 219 217 211 215 212 211 210 214 210 207 206 206 230 206 199 196 192 192 198 198 262 296 306 295 329
223 237 226 212 221 231 220 215 213 213 208 212 212 213 209 214 210 206 212 174 240 222 212 198 187 197 207 199 303 292 295 290 31
187 203 219 219 220 220 213 211 211 210 207 209 215 216 214 211 208 206 185 192 227 210 213 41 124 148 182 273 299 288 284 199 119
186 212 225 235 214 219 207 208 207 208 206 208 215 214 215 207 200 200 208 213 231 208 219 272 195 178 192 229 252 253 243 143 134
202 246 239 236 209 210 206 209 208 205 205 208 210 208 209 199 199 207 202 211 192 199 222 150 177 181 187 219 232 231 148 139 140
221 170 197 216 224 213 207 205 205 201 205 206 204 200 196 195 200 201 213 209 183 182 176 184 180 182 196 212 236 208 138 149 127
34 172 175 190 200 200 201 201 203 205 203 203 202 197 193 196 204 213 209 208 207 204 213 179 181 194 200 218 213 178 151 133 125
10 206 193 197 196 195 194 199 203 200 198 201 199 198 198 199 211 209 197 197 203 199 183 170 186 193 207 216 199 172 167 152 139
345 346 209 201 203 198 199 198 198 199 199 196 197 198 199 205 199 199 196 197 189 181 174 177 188 197 196 187 186 186 178 185 183
312 318 274 215 208 207 204 201 198 200 200 196 196 199 204 199 194 200 203 183 182 178 176 186 192 193 192 185 186 189 194 198 206
296 295 277 250 210 205 209 203 203 205 200 192 185 194 196 200 190 192 189 182 179 181 185 192 190 189 187 188 191 186 193 205 226
292 287 290 279 223 230 228 208 214 206 197 197 186 193 190 183 188 187 187 188 187 186 191 195 196 193 192 191 185 183 185 200 201
268 275 268 250 238 228 217 216 202 206 210 205 195 189 181 180 182 176 179 186 191 189 190 194 198 194 189 182 176 179 181 192 176
271 285 296 277 242 235 229 217 198 201 199 194 184 183 177 176 177 180 176 180 188 187 191 200 210 204 192 182 177 168 181 199 227
277 281 285 277 256 239 219 203 180 174 173 220 188 180 179 179 181 183 183 187 187 187 189 181 181 182 185 192 207 215 218 223 238
268 286 260 253 259 243 225 211 194 193 174 201 192 192 182 181 185 184 185 193 194 189 181 176 180 192 199 221 243 222 211 230 227